When you browse on this site, cookies collect data to enhance your experience and personalize the content and advertising you see.
Visit our Privacy Policy to learn more. By continuing to use the site, you agree to this use of cookies and data.
  • In Romania
  • List of Countries
  • For 7 days
  • Water Temperature
  • Satellite Maps
  • Weather Map
  • Weather Widgets
  • user-avatar
    Login

    Hourly Weather Lykovo

    Today, 16 January, Wednesday

    Time Temperature Precipitation Wind Pressure Humidity
    00:00 -8°C° 0.1 mm 5 mps 730 mmHg 88%
    01:00 -10°C° 0.1 mm 5 mps 730 mmHg 89%
    02:00 -9°C° 0 mm 4 mps 730 mmHg 89%
    03:00 -9°C° 0 mm 4 mps 730 mmHg 89%
    04:00 -10°C° 0 mm 4 mps 731 mmHg 89%
    05:00 -10°C° 0 mm 4 mps 731 mmHg 89%
    06:00 -9°C° 0 mm 3 mps 731 mmHg 89%
    07:00 -9°C° 0 mm 3 mps 732 mmHg 90%
    08:00 -9°C° 0 mm 3 mps 732 mmHg 90%
    09:00 -9°C° 0 mm 3 mps 732 mmHg 89%
    10:00 -9°C° 0 mm 3 mps 732 mmHg 88%
    11:00 -8°C° 0 mm 3 mps 732 mmHg 87%
    12:00 -9°C° 0 mm 3 mps 733 mmHg 88%
    13:00 -9°C° 0 mm 3 mps 733 mmHg 89%
    14:00 -9°C° 0 mm 3 mps 733 mmHg 90%
    15:00 -9°C° 0 mm 3 mps 733 mmHg 91%
    16:00 -9°C° 0 mm 3 mps 733 mmHg 92%
    17:00 -10°C° 0 mm 3 mps 733 mmHg 94%
    18:00 -10°C° 0 mm 3 mps 734 mmHg 94%
    19:00 -10°C° 0 mm 3 mps 734 mmHg 95%
    20:00 -10°C° 0 mm 3 mps 734 mmHg 95%
    21:00 -10°C° 0 mm 3 mps 734 mmHg 95%
    22:00 -10°C° 0 mm 3 mps 734 mmHg 95%
    23:00 -9°C° 0 mm 3 mps 735 mmHg 94%

    Tomorrow, 17 January, Thursday

    Time Temperature Precipitation Wind Pressure Humidity
    00:00 -9°C° 0 mm 3 mps 735 mmHg 93%
    01:00 -9°C° 0 mm 3 mps 735 mmHg 93%
    02:00 -9°C° 0 mm 3 mps 736 mmHg 92%
    03:00 -9°C° 0 mm 3 mps 736 mmHg 91%
    04:00 -9°C° 0 mm 3 mps 736 mmHg 90%
    05:00 -9°C° 0 mm 3 mps 736 mmHg 89%
    06:00 -10°C° 0 mm 3 mps 736 mmHg 90%
    07:00 -12°C° 0 mm 3 mps 736 mmHg 92%
    08:00 -13°C° 0 mm 3 mps 735 mmHg 93%
    09:00 -12°C° 0.1 mm 4 mps 735 mmHg 92%
    10:00 -12°C° 0.1 mm 5 mps 734 mmHg 92%
    11:00 -11°C° 0.1 mm 5 mps 734 mmHg 91%
    12:00 -9°C° 0.5 mm 6 mps 733 mmHg 91%
    13:00 -8°C° 0.5 mm 6 mps 733 mmHg 91%
    14:00 -6°C° 0.5 mm 6 mps 732 mmHg 91%
    15:00 -5°C° 0.5 mm 6 mps 731 mmHg 90%
    16:00 -4°C° 0.5 mm 6 mps 731 mmHg 89%
    17:00 -3°C° 0.5 mm 7 mps 730 mmHg 87%
    18:00 -3°C° 0.5 mm 7 mps 730 mmHg 88%
    19:00 -3°C° 0.5 mm 7 mps 729 mmHg 88%
    20:00 -3°C° 0.5 mm 7 mps 728 mmHg 88%
    21:00 -3°C° 0.6 mm 7 mps 728 mmHg 87%
    22:00 -2°C° 0.6 mm 7 mps 727 mmHg 86%
    23:00 -2°C° 0.6 mm 7 mps 727 mmHg 84%

    Day after tomorrow, 18 January, Friday

    Time Temperature Precipitation Wind Pressure Humidity
    00:00 -2°C° 0.1 mm 7 mps 727 mmHg 83%
    01:00 -2°C° 0.1 mm 7 mps 727 mmHg 81%
    02:00 -2°C° 0.1 mm 7 mps 727 mmHg 80%
    03:00 -2°C° 0.1 mm 7 mps 727 mmHg 80%
    04:00 -1°C° 0.1 mm 7 mps 728 mmHg 81%
    05:00 -1°C° 0.1 mm 8 mps 728 mmHg 81%
    06:00 -2°C° 0.1 mm 7 mps 729 mmHg 81%
    07:00 -2°C° 0.1 mm 6 mps 730 mmHg 81%
    08:00 -3°C° 0.1 mm 6 mps 731 mmHg 81%
    09:00 -2°C° 0 mm 5 mps 731 mmHg 83%
    10:00 -2°C° 0 mm 4 mps 732 mmHg 85%
    11:00 -3°C° 0 mm 4 mps 732 mmHg 87%
    12:00 -2°C° 0.1 mm 4 mps 732 mmHg 88%
    13:00 -1°C° 0.1 mm 3 mps 732 mmHg 89%
    14:00 0°C° 0.1 mm 3 mps 731 mmHg 90%
    15:00 -1°C° 0.7 mm 4 mps 731 mmHg 89%
    16:00 -1°C° 0.7 mm 5 mps 730 mmHg 88%
    17:00 -2°C° 0.7 mm 6 mps 730 mmHg 87%
    18:00 -3°C° 0.1 mm 6 mps 730 mmHg 86%
    19:00 -4°C° 0.1 mm 7 mps 730 mmHg 86%
    20:00 -6°C° 0.1 mm 7 mps 730 mmHg 85%
    21:00 -8°C° 0.3 mm 7 mps 731 mmHg 86%
    22:00 -11°C° 0.3 mm 6 mps 732 mmHg 87%
    23:00 -14°C° 0.3 mm 6 mps 733 mmHg 88%

    19 January, Saturday

    Time Temperature Precipitation Wind Pressure Humidity
    00:00 -14°C° 0.1 mm 6 mps 734 mmHg 87%
    01:00 -13°C° 0.1 mm 5 mps 735 mmHg 86%
    02:00 -13°C° 0.1 mm 5 mps 736 mmHg 85%
    03:00 -12°C° 0 mm 4 mps 736 mmHg 87%
    04:00 -12°C° 0 mm 4 mps 736 mmHg 89%
    05:00 -14°C° 0 mm 4 mps 737 mmHg 91%
    06:00 -12°C° 0.1 mm 4 mps 737 mmHg 90%
    07:00 -11°C° 0.1 mm 4 mps 737 mmHg 89%
    08:00 -10°C° 0.1 mm 4 mps 737 mmHg 88%
    09:00 -10°C° 0 mm 4 mps 738 mmHg 86%
    10:00 -10°C° 0 mm 4 mps 738 mmHg 84%
    11:00 -10°C° 0 mm 4 mps 739 mmHg 83%
    12:00 -10°C° 0 mm 4 mps 739 mmHg 83%
    13:00 -10°C° 0 mm 4 mps 739 mmHg 83%
    14:00 -10°C° 0 mm 4 mps 740 mmHg 83%
    15:00 -10°C° 0.1 mm 4 mps 740 mmHg 86%
    16:00 -9°C° 0.1 mm 3 mps 740 mmHg 88%
    17:00 -9°C° 0.1 mm 3 mps 740 mmHg 90%
    18:00 -8°C° 0.1 mm 3 mps 741 mmHg 90%
    19:00 -9°C° 0.1 mm 4 mps 741 mmHg 89%
    20:00 -8°C° 0.1 mm 4 mps 741 mmHg 89%
    21:00 -9°C° 0 mm 4 mps 741 mmHg 89%
    22:00 -9°C° 0 mm 4 mps 741 mmHg 89%
    23:00 -10°C° 0 mm 4 mps 741 mmHg 89%

    20 January, Sunday

    Time Temperature Precipitation Wind Pressure Humidity
    00:00 -9°C° 0 mm 4 mps 741 mmHg 89%
    01:00 -9°C° 0 mm 4 mps 742 mmHg 88%
    02:00 -10°C° 0 mm 5 mps 742 mmHg 88%
    03:00 -9°C° 0 mm 4 mps 742 mmHg 88%
    04:00 -9°C° 0 mm 4 mps 742 mmHg 89%
    05:00 -9°C° 0 mm 4 mps 742 mmHg 89%
    06:00 -9°C° 0 mm 4 mps 742 mmHg 90%
    07:00 -10°C° 0 mm 4 mps 742 mmHg 92%
    08:00 -9°C° 0 mm 3 mps 742 mmHg 93%
    09:00 -9°C° 0 mm 3 mps 743 mmHg 92%
    10:00 -9°C° 0 mm 3 mps 743 mmHg 92%
    11:00 -8°C° 0 mm 3 mps 744 mmHg 91%
    12:00 -8°C° 0 mm 3 mps 744 mmHg 90%
    13:00 -8°C° 0 mm 3 mps 744 mmHg 89%
    14:00 -7°C° 0 mm 2 mps 744 mmHg 88%
    15:00 -7°C° 0 mm 2 mps 744 mmHg 90%
    16:00 -8°C° 0 mm 2 mps 744 mmHg 92%
    17:00 -7°C° 0 mm 1 mps 744 mmHg 94%
    18:00 -7°C° 0 mm 1 mps 744 mmHg 95%
    19:00 -8°C° 0 mm 1 mps 744 mmHg 96%
    20:00 -8°C° 0 mm 1 mps 744 mmHg 97%
    21:00 -8°C° 0.1 mm 1 mps 744 mmHg 97%
    22:00 -8°C° 0.1 mm 1 mps 744 mmHg 97%
    23:00 -8°C° 0.1 mm 1 mps 744 mmHg 97%

    21 January, Monday

    Time Temperature Precipitation Wind Pressure Humidity
    00:00 -8°C° 0.1 mm 1 mps 744 mmHg 97%
    01:00 -9°C° 0.1 mm 1 mps 744 mmHg 97%
    02:00 -9°C° 0.1 mm 1 mps 744 mmHg 97%
    03:00 -9°C° 0.1 mm 1 mps 743 mmHg 97%
    04:00 -9°C° 0.1 mm 1 mps 743 mmHg 98%
    05:00 -9°C° 0.1 mm 1 mps 743 mmHg 98%
    06:00 -9°C° 0 mm 1 mps 743 mmHg 98%
    07:00 -9°C° 0 mm 1 mps 744 mmHg 98%
    08:00 -9°C° 0 mm 1 mps 744 mmHg 98%
    09:00 -8°C° 0.1 mm 1 mps 744 mmHg 97%
    10:00 -8°C° 0.1 mm 1 mps 744 mmHg 96%
    11:00 -7°C° 0.1 mm 1 mps 744 mmHg 95%
    12:00 -7°C° 0 mm 1 mps 744 mmHg 95%
    13:00 -7°C° 0 mm 1 mps 744 mmHg 94%
    14:00 -6°C° 0 mm 1 mps 744 mmHg 93%
    15:00 -7°C° 0.1 mm 1 mps 744 mmHg 94%
    16:00 -8°C° 0.1 mm 1 mps 744 mmHg 95%
    17:00 -8°C° 0.1 mm 1 mps 744 mmHg 96%
    18:00 -10°C° 0 mm 1 mps 744 mmHg 97%
    19:00 -11°C° 0 mm 1 mps 744 mmHg 97%
    20:00 -12°C° 0 mm 1 mps 744 mmHg 97%
    21:00 -12°C° 0 mm 1 mps 744 mmHg 97%
    22:00 -12°C° 0 mm 1 mps 745 mmHg 97%
    23:00 -12°C° 0 mm 1 mps 745 mmHg 97%
    Show more